Location: Barrio de Buenos Aires
(28.4500°N, 16.2667°W)
Time: 18:01:27
(UTC+00:00)

SKYMED 2 - Pass Details

Date: 24 January 2020
Orbit: 621 x 623 km, 97.9° (Epoch: 23 February)

Event Time Altitude Azimuth Distance (km) Brightness Sun altitude
Rises 19:01:39 0° 11° (NNE) 2,901 6.7 -5.8°
Reaches altitude 10° 19:03:50 10° 12° (NNE) 1,992 5.9 -6.2°
Maximum altitude 19:08:10 90° 304° (NW) 625 3.6 -7.1°
Drops below altitude 10° 19:12:29 10° 193° (SSW) 1,980 6.6 -8.0°
Sets 19:14:40 0° 193° (SSW) 2,883 7.4 -8.5°
